Time,TemperatureF,DewpointF,PressureIn,WindDirection,WindDirectionDegrees,WindSpeedMPH,WindSpeedGustMPH,Humidity,HourlyPrecipIn,Conditions,Clouds,dailyrainin,SoftwareType,DateUTC
2013-03-26 00:00:00,30.2,21.6,29.95,SSW,202,1.0,11.0,70,0.00,,OVC,0.00,VWS V14.01,2013-03-26 04:00:00,
2013-03-26 01:00:00,29.7,21.8,29.96,SSW,202,1.0,8.0,72,0.00,,OVC,0.00,VWS V14.01,2013-03-26 05:00:00,
2013-03-26 02:00:00,29.2,22.0,29.97,NE,45,1.0,8.0,74,0.00,,OVC,0.00,VWS V14.01,2013-03-26 06:00:00,
2013-03-26 03:00:00,28.6,22.0,29.96,SSW,202,1.0,8.0,76,0.00,,OVC,0.00,VWS V14.01,2013-03-26 07:00:00,
2013-03-26 04:00:00,28.5,20.0,29.95,NNE,22,2.0,11.0,70,0.00,,OVC,0.00,VWS V14.01,2013-03-26 08:00:00,
2013-03-26 05:00:00,28.0,20.2,29.94,West,270,2.0,13.0,72,0.00,,OVC,0.00,VWS V14.01,2013-03-26 09:00:00,
2013-03-26 06:00:00,27.6,21.0,29.95,NW,315,3.0,13.0,76,0.00,,OVC,0.00,VWS V14.01,2013-03-26 10:00:00,
2013-03-26 07:00:00,27.8,20.9,29.95,SW,225,4.0,15.0,75,0.00,,OVC,0.00,VWS V14.01,2013-03-26 11:00:00,
2013-03-26 08:00:00,28.3,21.4,29.98,NW,315,4.0,17.0,75,0.00,,OVC,0.00,VWS V14.01,2013-03-26 12:00:00,
2013-03-26 09:00:00,29.6,21.7,30.00,WNW,292,4.0,18.0,72,0.00,,OVC,0.00,VWS V14.01,2013-03-26 13:00:00,
2013-03-26 10:00:00,31.6,21.9,30.02,NW,315,5.0,28.0,67,0.00,,OVC,0.00,VWS V14.01,2013-03-26 14:00:00,
2013-03-26 11:00:00,33.8,22.2,30.05,NW,315,5.0,19.0,62,0.00,,OVC,0.00,VWS V14.01,2013-03-26 15:00:00,
2013-03-26 12:00:00,34.8,22.0,30.07,West,270,5.0,20.0,59,0.00,,OVC,0.00,VWS V14.01,2013-03-26 16:00:00,
2013-03-26 13:00:00,35.3,21.6,30.08,NW,315,5.0,21.0,57,0.00,,OVC,0.00,VWS V14.01,2013-03-26 17:00:00,
2013-03-26 14:00:00,39.2,23.1,30.09,SW,225,4.0,19.0,52,0.00,,OVC,0.00,VWS V14.01,2013-03-26 18:00:00,
2013-03-26 15:00:00,40.4,24.2,30.09,SSW,202,4.0,20.0,52,0.00,,OVC,0.00,VWS V14.01,2013-03-26 19:00:00,
2013-03-26 16:00:00,36.9,24.7,30.12,SSW,202,3.0,19.0,61,0.00,,OVC,0.00,VWS V14.01,2013-03-26 20:00:00,
2013-03-26 17:00:00,37.1,23.7,30.12,West,270,3.0,16.0,58,0.00,,OVC,0.00,VWS V14.01,2013-03-26 21:00:00,
2013-03-26 18:00:00,36.2,22.9,30.14,SW,225,3.0,19.0,58,0.00,,OVC,0.00,VWS V14.01,2013-03-26 22:00:00,
2013-03-26 19:00:00,34.8,24.6,30.17,SSW,202,3.0,14.0,66,0.00,,OVC,0.00,VWS V14.01,2013-03-26 23:00:00,
2013-03-26 20:00:00,32.2,24.5,30.19,SSW,202,2.0,9.0,73,0.00,,OVC,0.00,VWS V14.01,2013-03-27 00:00:00,
2013-03-26 21:00:00,31.7,24.0,30.21,SW,225,1.0,10.0,73,0.00,,OVC,0.00,VWS V14.01,2013-03-27 01:00:00,
2013-03-26 22:00:00,31.5,23.9,30.23,WSW,248,1.0,6.0,73,0.00,,OVC,0.00,VWS V14.01,2013-03-27 02:00:00,
2013-03-26 23:00:00,30.3,24.6,30.24,SW,225,1.0,9.0,79,0.00,,OVC,0.00,VWS V14.01,2013-03-27 03:00:00,